Tracking 25648 objects as of 17-May-2022
HD Live streaming from Space Station
objects crossing your sky now

COSMOS 2251 DEB

Track COSMOS 2251 DEB now!
10-day predictions


NORAD ID: 35061
Int'l Code: 1993-036AHQ
Perigee: 681.1 km
Apogee: 753.7 km
Inclination: 74.0 °
Period: 99.0 minutes
Semi major axis: 7088 km
RCS: 0.009 m2 (small)
Launch date: June 16, 1993
Source: Commonwealth of Independent States (former USSR) (CIS)
Launch site: PLESETSK MISSILE AND SPACE COMPLEX (PKMTR)

Note: This is SATELLITE DEBRIS
aabbcc
Your satellite tracking list
Your tracking list is empty




NASA's NSSDC Master Catalog

Two Line Element Set (TLE):
1 35061U 93036AHQ 22135.64338762  .00001894  00000-0  44141-3 0  9997
2 35061  74.0486 278.7456 0051223   5.9800 354.1963 14.54727532694976
Source of the keplerian elements: AFSPC